Showing default

FLOCK 4Q 28, 58280

Orbit data source: Space-Track

FLOCK 4Q 28, 58280 is a payload satellite owned by Planet (US) in SSO that was launched on Sat, 11 Nov 2023 UTC via an FALCON 9 launch vehicle from the Air Force Western Test Range (AFWTR). Payload-class satellites include a variety of spacecraft equipped with specific instruments for various scientific and technological missions. These include communications satellites like Starlink; space stations such as the ISS; scientific satellites like the Hubble; Earth observation satellites from companies like Planet Labs, Umbra, and HawkEye 360; GPS; miniature CubeSats for education and research; and military/defense satellites.

Loading next visibility...
Identifier
58280, 2023-174AA
Orbit
SSO
Country
Flag of USUS
Related business
Manufacturer
Planet
Mission
Operational Commercial Imaging
Bus & Motor
CUBESAT 3U, Unknown motor
Mass
5.7 kg wet, 5.7 kg dry
Launch date (UTC)
2023-11-11 (2 years ago)
Launch vehicle
FALCON 9
Launch site
Air Force Western Test Range (AFWTR)
Object type
Payload
Rocket body
Debris
Shape & HBR
Box + 2 Pan, 1.0 m
Radar Cross Section
0.072 m², Medium (>0.1 m² and < 1m²)

Expand to show TLE details & history
Last TLE update: 17 hours ago

TLE from 17 hours ago
0 FLOCK 4Q 28
1 58280U 23174AA  25341.20261200  .00036461  00000-0  82116-3 0  9999
2 58280  97.4050  62.7186 0007662 127.3435 232.8512 15.43165021116027
Epoch: 2025-12-07T04:51Z
TLE epoch observation values (Epoch: 2025-12-07T04:51:45.676Z)
Latitude
-0.00002°
Longitude
-86.44109°
Altitude
443.053 km
Speed
7.644 km/s
True Right ascension
04h 10m 52s
True Declination
0° 00' 00"
Sunlit
Object was in full shadow at epoch
Visualization orbit readout
Latitude
Unknown
Longitude
Unknown
Altitude
Unknown
Speed
Unknown
Apparent Right ascension
Unknown
Apparent Declination
Unknown
Sunlit
N/A
Visualization observer readout
Local Sidereal Time
20:01:45
Azimuth
Unknown
Elevation
Unknown
Doppler factor
Unknown
Orbital elements
Apogee altitude
438.929 km
Perigee altitude
428.491 km
Semi-major axis
6,811.847 km
Eccentricity
0.00077
Inclination
97.405°
RAAN
62.7186°
Arg. of periapsis
127.3435°
True anomaly
232.78126°
Mean anomaly
232.8512°
Eccentric anomaly
232.81622°
Mean motion
3.86052 °/min
Orbital period
93.25 mins
BSTAR
0.00082116
Loading maneuver chart data...
Computing Atmospheric mass density...
Loading historical data...
Loading historical data...
Loading historical data...
Loading historical data...
Loading historical data...
Loading historical data...
Loading historical data...

Documentation

Showing up to 5 results
|